Terug naar catalogus

THORAD AGENA D DEB

ActiefLEO
NORAD 4934·DEBRIS·🇺🇸 United States

Gelanceerd Apr 8, 1970 vanaf Vandenberg Space Force Base

Loading…

Volgende Passages (komende 24 uur)

TLE

VersSource: Space-Track

Epoch: Sep 14, 2026, 07:59 UTC

1 04934U 70025GA  26257.33292179  .00000395  00000-0  46174-3 0  9994
2 04934 100.0310  27.7398 0005192 317.4266  70.6979 13.75518335808633

Volg THORAD AGENA D DEB in realtime met AllMySat

Download on the App Store